Theta_e
310 310 311 311 311 311 311 311 311 311 311 311 310 310 310 309 309 305 302 300 297 291 289 292 293 288 290 291 285 290 288 290 290 286 285 286 287 291 289 292 289 288 288 287 288 287 288 304 304 301 306 306 307 307
310 310 310 310 311 311 311 311 311 311 311 310 311 310 309 309 309 307 299 304 303 295 292 295 297 298 295 295 291 291 291 290 291 287 285 284 288 290 288 288 294 292 293 291 293 293 301 302 306 307 308 307 307 309
311 310 310 310 310 310 310 311 310 310 310 310 310 311 310 310 309 307 301 301 300 295 294 292 290 296 298 298 300 289 293 296 294 293 288 286 286 290 287 290 291 296 298 294 297 300 306 305 308 308 308 309 309 311
311 310 309 310 310 310 310 311 310 310 310 310 310 310 310 310 309 307 302 303 300 296 289 289 296 292 298 296 298 298 296 298 297 295 291 288 286 291 290 294 295 300 302 299 297 304 310 309 311 317 318 314 314 312
310 310 309 309 309 310 310 310 310 310 310 310 310 310 310 310 308 306 304 303 304 296 289 290 295 294 293 295 296 297 296 294 293 290 290 289 289 293 298 299 297 304 300 298 300 306 306 310 314 320 321 316 318 316
310 310 309 309 309 309 309 310 309 310 310 310 309 309 310 309 308 303 296 304 305 303 294 288 290 291 292 293 293 293 293 293 292 290 291 293 293 298 294 297 307 307 309 304 300 301 310 316 321 322 322 322 318 317
309 310 309 309 309 308 309 309 309 309 310 310 309 309 309 308 305 298 296 303 307 305 295 287 284 290 292 291 294 295 295 292 292 292 291 293 293 302 296 295 307 309 305 304 304 302 310 316 313 319 324 327 323 329
309 310 309 309 309 309 308 308 308 309 310 309 309 309 309 308 306 301 305 308 307 299 296 289 285 285 291 290 289 293 292 293 292 292 293 293 298 301 294 302 306 308 303 302 301 304 304 316 320 320 324 328 329 332
309 309 309 308 308 309 308 307 308 309 309 309 309 308 305 302 299 300 309 309 306 299 291 289 284 279 294 293 290 292 291 286 293 290 291 291 294 290 298 300 302 303 301 301 303 304 316 321 321 321 322 328 328 329
309 309 308 308 308 308 309 308 308 308 308 308 304 301 295 299 309 309 303 297 297 297 295 289 293 286 289 290 291 290 289 287 286 291 292 289 288 297 301 302 304 304 304 303 300 299 308 318 321 321 321 331 333 335
309 309 308 308 308 309 309 309 308 307 307 300 299 297 302 309 302 297 292 289 288 285 289 291 291 290 292 285 285 288 287 286 284 288 288 286 286 298 307 308 310 309 312 312 306 303 314 320 323 322 323 330 334 335
309 309 308 308 308 309 310 309 308 301 303 301 303 304 303 298 294 289 287 288 285 285 287 290 292 293 293 291 289 289 287 288 285 293 287 285 289 299 303 305 309 310 312 315 317 309 321 325 325 324 324 327 331 333
308 308 307 307 308 309 309 309 308 306 305 301 301 298 296 295 291 288 287 290 290 286 289 293 294 294 294 296 294 290 287 286 292 292 289 290 297 300 304 304 307 310 312 314 320 322 324 325 326 324 323 326 327 330
308 307 307 308 308 309 309 309 308 306 302 296 296 290 294 293 294 296 297 297 300 298 294 296 295 295 297 295 293 290 291 292 286 286 290 296 299 302 303 305 308 308 310 312 316 319 321 323 324 323 322 322 323 325
307 307 308 308 309 309 309 309 309 302 301 298 297 289 291 296 297 298 302 299 300 301 298 295 295 295 293 288 288 287 286 286 288 289 294 300 303 304 305 307 308 309 310 312 316 317 317 321 320 320 321 318 319 320
307 307 305 308 308 309 308 308 304 303 304 300 299 295 297 294 297 298 298 299 302 300 300 299 295 294 293 292 289 287 287 285 288 294 300 302 303 305 307 308 310 311 314 315 314 316 317 319 318 317 318 315 315 315
306 305 307 307 307 308 308 305 304 303 300 300 296 296 295 294 294 295 295 296 300 299 294 296 292 291 295 291 286 288 289 294 299 301 302 302 303 304 306 308 309 309 309 311 315 317 317 318 315 314 313 312 312 312
299 301 306 307 306 306 305 306 303 301 297 297 295 297 297 296 295 297 297 297 298 295 295 293 296 293 291 290 292 297 300 301 302 302 303 304 305 305 306 306 307 308 308 309 311 312 312 313 312 312 313 312 310 310
302 304 306 307 307 304 305 304 303 296 296 297 297 297 297 298 298 298 297 299 298 298 296 295 293 291 292 296 298 298 300 302 301 301 303 305 306 306 306 307 307 307 307 308 307 307 309 310 310 311 311 311 309 310
307 308 310 309 308 305 302 301 303 299 296 298 297 298 296 297 298 297 298 299 296 296 294 294 294 294 293 295 297 299 300 303 299 298 301 301 301 301 303 306 306 307 307 308 308 304 308 308 309 309 309 309 309 309
308 312 311 309 310 306 302 300 299 298 297 296 297 296 296 296 296 296 298 300 298 294 294 297 298 299 295 296 296 297 298 300 299 301 299 298 299 297 296 297 300 305 306 306 306 307 306 307 308 309 309 309 310 310
307 312 310 313 308 303 300 301 301 300 299 297 297 296 294 294 295 295 297 299 296 296 297 296 300 297 294 294 294 294 294 299 299 298 297 296 292 292 293 293 294 294 296 299 303 306 307 309 309 311 310 310 308 309
310 310 311 311 305 295 296 304 301 300 298 297 297 295 294 294 295 297 294 295 297 298 298 297 297 296 294 294 294 293 293 292 291 290 291 290 291 291 291 292 292 292 293 296 298 301 304 302 307 308 310 311 311 310
310 308 306 305 300 295 301 299 301 299 298 296 296 294 295 295 296 294 292 294 300 300 297 296 295 294 294 294 292 292 293 291 290 290 289 288 288 289 290 291 292 293 293 295 297 299 301 302 299 302 303 305 307 307
299 297 299 291 300 299 300 298 298 297 295 296 297 296 296 296 293 292 292 296 300 301 298 298 295 294 293 292 292 293 293 291 290 289 290 289 289 291 291 291 292 293 293 293 293 294 296 300 301 300 300 300 300 300
292 299 296 301 300 299 298 296 296 296 296 296 297 297 297 295 293 291 293 297 302 303 300 299 296 294 293 295 294 294 293 293 292 290 290 289 289 289 289 289 289 291 293 293 293 295 297 299 299 298 298 297 295 299
294 299 301 303 302 303 301 301 300 296 296 296 296 296 295 291 292 296 299 302 302 302 303 302 302 298 295 296 295 294 293 294 293 292 291 291 291 290 290 289 289 290 292 294 296 296 296 297 297 297 296 296 296 297
305 303 299 301 301 301 300 299 298 297 298 299 298 296 294 295 295 299 302 304 304 304 302 302 301 297 296 296 296 295 295 294 295 293 292 291 291 291 291 292 292 290 292 294 295 295 294 294 295 295 295 294 293 294
304 307 304 302 302 299 300 299 299 299 301 300 298 297 300 303 305 305 305 306 301 298 297 296 295 296 298 298 296 294 295 294 291 289 288 287 288 289 291 291 291 291 292 293 291 292 293 292 291 291 291 291 292 292
304 306 304 303 300 298 300 302 301 301 301 302 303 303 304 305 308 310 306 305 300 300 298 296 296 297 297 294 292 291 291 292 292 290 288 288 288 289 290 290 290 290 291 292 291 291 291 291 290 291 290 290 290 290
305 303 301 300 300 303 303 303 302 303 304 304 305 304 303 305 308 307 306 300 299 299 298 296 296 297 296 294 291 290 289 291 291 291 290 289 290 290 290 290 289 290 290 290 289 289 289 288 288 287 287 288 288 288
303 302 301 300 300 303 303 301 300 301 302 303 303 305 304 303 301 303 303 300 300 299 298 298 297 296 297 296 295 293 290 291 291 291 291 290 290 289 289 289 289 290 290 290 290 289 289 288 288 288 288 287 288 288
303 302 301 300 301 301 301 301 300 301 302 302 303 304 304 303 300 302 301 301 302 300 297 297 297 296 294 293 292 292 291 291 289 288 288 288 288 288 289 289 290 290 289 289 288 288 288 287 286 287 287 287 288 288
Wind_Speed
23 22 21 22 21 19 18 16 15 13 12 13 16 16 12 10 6 6 2 7 4 2 6 8 8 8 6 5 4 1 4 0 3 3 2 3 3 4 4 2 4 8 9 6 4 6 10 7 5 17 11 5 7 9
23 22 20 21 20 18 17 16 14 12 10 11 15 15 14 12 7 8 3 4 5 5 6 4 10 14 9 11 4 3 1 3 3 4 1 4 3 3 2 2 4 1 5 4 9 9 9 6 10 11 7 8 7 9
22 22 20 20 20 18 16 15 13 13 10 10 12 14 15 11 10 8 3 3 2 3 7 4 9 9 10 16 14 4 3 6 4 4 3 4 4 1 2 2 4 4 3 2 7 4 12 10 4 6 7 11 9 9
22 22 20 19 19 17 15 15 12 12 10 9 9 11 12 11 8 9 4 4 2 2 4 6 1 4 8 7 14 19 8 2 2 6 5 3 3 2 3 3 2 4 8 7 7 8 20 3 7 13 16 11 6 7
22 22 20 19 19 16 15 13 11 12 11 8 8 9 10 8 8 4 2 5 6 3 3 7 13 5 3 7 14 13 13 9 4 5 3 3 3 2 2 1 2 2 4 5 4 15 13 16 13 14 15 10 11 10
22 22 21 19 19 16 15 13 13 12 12 9 7 6 5 3 8 2 3 3 8 5 3 4 5 3 3 5 7 12 13 7 4 4 4 3 5 1 2 2 5 3 2 2 6 18 14 14 10 15 11 12 10 10
22 21 22 20 19 18 15 13 13 13 10 8 7 6 5 7 3 3 2 1 4 4 2 4 5 5 3 3 1 2 6 4 4 3 3 3 2 2 2 4 7 3 9 11 12 14 9 13 11 18 12 12 6 2
23 21 22 20 19 18 17 14 13 11 7 6 4 4 4 6 2 2 3 8 5 2 1 3 5 5 4 4 2 2 2 1 3 2 1 3 1 1 6 7 7 9 14 15 17 13 10 14 14 18 15 16 10 7
22 22 22 21 19 18 16 13 11 9 4 3 2 5 2 0 2 3 4 4 2 2 2 2 2 4 4 1 1 3 1 1 1 2 3 2 2 5 4 10 10 9 10 14 18 14 15 15 17 20 19 21 12 6
22 23 23 22 20 18 14 11 9 7 3 7 3 1 1 3 3 7 3 2 1 1 1 2 2 4 2 3 3 1 3 1 1 4 1 4 5 7 7 9 11 11 12 12 12 20 18 16 16 19 17 15 11 7
22 23 23 22 21 19 13 7 1 8 5 1 1 2 1 2 0 2 2 1 1 2 2 2 3 2 1 1 2 1 1 1 1 3 3 3 4 1 6 10 8 8 6 11 8 9 7 10 8 11 15 15 14 11
22 23 23 22 20 15 12 1 8 2 2 3 1 1 1 1 0 1 2 2 3 3 2 3 3 4 3 2 1 2 0 2 3 2 1 3 4 2 8 8 9 10 10 13 14 10 8 8 7 8 8 11 13 10
22 23 23 21 18 15 9 5 11 2 2 2 1 1 2 1 5 5 6 3 2 5 4 3 3 2 1 2 2 0 1 3 2 2 4 4 3 0 7 9 10 9 8 13 15 5 3 7 6 6 11 11 9 8
22 23 22 17 17 15 1 9 10 3 1 2 5 8 5 7 6 4 7 6 5 2 5 3 2 2 2 2 3 2 3 3 3 3 3 6 13 16 6 6 8 8 10 10 11 9 3 5 6 7 6 7 8 9
22 23 17 7 17 8 7 9 8 1 1 4 4 7 5 4 5 6 5 3 3 2 3 2 2 0 2 2 1 1 2 3 3 3 5 11 15 15 13 8 7 6 7 9 7 7 7 3 3 7 7 7 7 7
23 14 4 14 15 5 10 6 1 1 2 4 8 6 5 3 9 8 8 10 3 2 1 1 1 2 5 3 5 6 4 4 4 3 6 12 10 10 8 6 6 7 4 4 6 4 5 2 3 2 6 7 8 6
17 1 9 13 14 4 3 3 2 4 4 6 4 1 2 3 5 5 3 5 5 4 4 4 6 7 4 4 4 1 3 6 9 7 8 13 15 15 12 9 7 6 6 6 5 7 5 1 4 3 3 7 8 4
4 5 14 10 8 1 2 1 2 5 5 2 3 5 4 3 4 5 5 4 5 4 3 3 1 5 5 6 5 4 2 3 3 4 6 8 15 17 15 15 13 13 14 12 9 7 8 9 7 2 2 4 4 6
11 14 23 16 4 1 2 4 4 3 1 2 3 2 3 4 3 4 4 5 1 1 3 4 6 4 2 2 3 4 2 3 5 6 5 9 10 9 11 14 17 17 15 13 13 9 8 9 8 6 4 4 4 5
16 12 10 3 5 2 3 3 2 3 2 2 1 4 3 3 5 4 4 4 3 3 6 6 3 3 2 3 3 4 3 2 3 6 9 8 9 10 10 9 8 10 11 12 9 10 7 5 6 5 6 7 5 5
7 1 3 1 2 4 3 1 2 2 1 0 1 1 3 4 4 4 4 4 6 3 3 2 2 2 4 3 2 3 5 4 3 2 3 5 8 5 8 9 10 7 6 7 7 8 8 6 6 5 5 5 3 2
4 5 2 1 3 3 2 1 3 0 1 2 2 2 2 2 3 4 3 4 3 1 1 2 3 3 4 5 4 5 5 4 6 5 7 6 8 9 8 7 8 8 7 7 7 6 5 4 5 5 4 3 3 3
6 1 2 3 1 4 4 1 1 1 0 2 2 2 3 2 3 2 3 1 2 2 1 2 1 2 2 3 4 6 7 7 7 7 6 5 4 4 6 7 6 8 9 9 7 6 6 7 6 7 7 6 5 3
3 2 1 1 3 3 1 1 1 1 2 1 0 3 2 2 2 4 1 2 2 1 0 1 1 2 3 5 4 3 4 4 4 5 5 5 6 6 5 6 6 7 5 5 5 6 5 5 7 6 6 5 7 6
3 3 4 4 1 1 2 1 1 1 3 2 1 3 3 1 2 2 1 3 2 2 2 2 2 1 3 1 2 2 3 3 3 4 5 4 4 5 7 5 6 7 7 8 8 7 7 4 4 5 7 8 10 13
1 3 5 3 1 3 3 2 2 4 2 2 4 1 1 2 1 3 3 3 2 2 3 4 5 3 2 3 3 1 1 1 2 4 4 3 3 3 3 4 5 7 8 7 8 9 9 6 8 10 9 11 13 10
2 4 3 2 2 1 2 2 1 2 3 3 2 1 1 1 2 3 3 3 3 1 2 4 4 4 4 3 2 0 1 2 4 2 2 2 3 2 2 3 4 4 7 8 8 9 10 10 10 10 10 9 10 10
6 2 5 3 2 2 2 1 1 2 2 2 2 1 2 3 2 3 4 2 2 2 2 2 1 4 4 3 4 3 3 2 2 2 1 3 4 4 6 4 3 9 5 7 8 9 9 9 9 10 11 10 9 10
3 3 3 3 2 2 4 5 4 4 4 4 5 3 2 2 2 1 2 2 2 4 4 4 4 4 6 5 5 4 3 4 5 7 6 4 4 4 6 4 4 4 4 6 8 9 9 7 8 8 9 7 7 7
4 4 3 2 4 5 5 6 3 2 2 3 3 3 2 2 2 0 0 1 2 2 3 4 3 4 4 4 4 5 4 4 3 3 3 3 3 4 3 4 5 5 4 5 6 7 9 7 8 7 9 8 8 7
4 3 2 3 4 4 3 3 2 3 3 3 2 3 1 2 2 2 2 1 4 4 5 5 4 3 4 4 4 4 3 3 4 5 3 1 2 3 4 4 4 3 5 6 7 7 8 8 8 8 9 9 10 9
4 5 5 3 4 2 1 2 2 2 2 2 1 2 1 2 0 3 2 2 4 4 4 4 5 2 2 4 4 4 6 3 3 4 5 3 3 4 4 4 4 5 6 7 8 8 10 10 8 10 9 11 11 11
2 2 1 1 2 1 1 4 3 2 2 2 2 4 4 5 4 3 1 1 3 5 5 4 4 5 6 6 6 4 5 4 6 8 10 9 8 8 5 4 5 6 8 8 9 9 10 12 11 12 12 12 11 11
Wind_Direction
315 319 325 323 327 327 324 322 318 308 287 253 237 234 238 255 251 179 193 173 200 243 277 236 247 268 266 232 239 188 311 169 306 257 230 283 236 272 312 288 172 166 145 179 167 216 252 224 85 182 208 186 188 172
314 319 325 322 326 327 323 322 321 314 291 272 241 240 238 240 235 194 223 177 194 224 261 257 248 248 216 222 236 149 244 326 266 294 353 300 302 330 288 291 348 195 182 206 182 208 233 212 216 204 190 158 207 165
315 318 325 324 326 323 321 323 323 321 301 282 264 243 241 250 206 189 191 156 167 271 268 258 248 239 232 230 219 222 202 194 235 289 279 261 277 96 295 318 300 302 46 237 359 346 316 289 273 307 232 202 182 187
314 316 323 322 324 320 320 322 323 317 305 284 276 262 241 245 246 194 173 177 164 277 277 282 308 232 209 174 194 213 229 190 296 304 264 261 264 180 267 279 293 323 322 332 272 325 332 334 26 349 322 281 196 202
312 314 320 320 321 319 317 313 311 311 307 289 277 263 260 240 214 216 204 199 194 201 283 296 307 279 222 183 189 205 228 236 230 267 239 254 259 318 250 290 274 345 9 11 317 315 293 269 298 312 312 277 220 186
312 313 316 319 322 324 318 311 307 299 295 299 278 276 268 236 157 165 275 212 205 178 260 284 278 278 264 217 187 186 211 210 214 206 251 264 247 71 292 253 225 161 121 17 307 305 272 271 267 329 325 314 284 201
312 312 313 319 322 326 318 309 306 306 296 281 279 270 248 201 158 174 229 148 153 138 244 292 294 287 295 291 264 168 160 185 194 195 214 252 269 99 271 239 211 12 346 334 312 331 316 344 333 326 327 324 310 70
310 310 312 318 322 321 320 311 308 309 297 279 284 279 253 202 160 262 233 200 156 169 212 263 272 337 339 322 345 346 162 209 221 201 301 245 327 158 245 244 313 332 332 335 328 336 286 288 328 353 4 6 17 1
310 310 313 319 324 319 318 311 303 307 287 231 138 114 84 72 232 234 194 178 126 201 213 214 260 270 336 270 248 2 83 156 238 177 227 75 214 232 250 301 304 311 310 312 322 332 335 354 354 357 360 354 355 6
312 312 316 322 328 323 319 311 300 306 170 136 102 170 262 220 276 149 157 161 206 78 250 246 313 278 22 2 318 331 27 190 357 266 50 184 241 232 266 278 284 292 299 300 339 340 340 340 359 351 355 346 343 356
315 314 319 327 328 325 328 317 308 111 118 55 198 236 261 284 190 197 171 176 115 253 243 245 227 278 253 179 276 214 234 285 58 258 146 281 274 311 345 320 320 311 296 307 280 277 285 280 338 335 337 355 5 7
317 318 322 329 324 325 332 264 161 99 200 213 172 112 144 239 222 299 240 161 198 241 240 252 205 204 266 147 1 293 305 46 260 328 344 252 244 88 332 334 307 306 322 305 280 280 296 312 336 325 329 360 359 358
319 319 325 327 322 329 330 177 174 238 91 6 263 222 31 312 347 23 321 322 260 171 209 239 218 218 230 227 256 306 291 250 307 246 255 251 237 218 333 322 306 289 309 317 300 278 334 316 341 357 343 358 2 343
320 321 327 325 331 334 262 164 170 188 37 42 15 7 30 355 359 330 321 327 344 182 159 228 37 3 328 105 345 305 30 314 337 312 299 327 319 317 336 293 290 286 283 296 308 316 2 338 341 339 357 4 351 346
323 326 327 344 348 8 122 141 151 24 39 33 34 27 358 291 272 269 285 313 352 55 136 113 98 244 54 70 41 332 27 43 344 333 301 303 304 304 306 297 285 278 289 277 315 323 314 336 46 336 352 359 359 354
327 327 27 3 2 108 123 118 289 303 32 44 33 7 312 357 352 356 352 359 34 142 288 298 111 25 53 23 11 23 5 360 296 270 326 323 326 335 339 343 331 327 294 273 253 282 294 358 356 59 332 8 346 12
325 206 32 14 6 118 143 334 306 24 64 36 334 270 251 262 258 283 309 304 315 17 25 28 29 7 329 25 29 27 21 340 332 1 4 4 8 11 6 15 10 22 15 356 1 25 21 234 168 76 35 358 334 2
255 297 324 346 347 154 257 216 26 57 39 356 17 306 309 239 304 322 328 330 14 16 28 45 173 44 18 4 2 359 353 300 288 337 335 4 14 15 16 11 19 24 25 22 30 43 39 44 53 163 253 14 318 324
279 295 296 305 269 289 47 9 63 63 303 288 293 304 292 279 256 263 282 327 32 115 74 23 43 3 338 308 303 314 342 350 321 316 322 352 357 8 18 21 34 33 24 15 16 23 28 47 49 27 7 24 11 3
295 286 301 87 176 90 45 350 59 94 359 271 316 330 291 274 301 318 338 0 20 30 26 33 352 283 263 281 276 289 322 335 334 338 346 359 1 358 358 359 11 21 20 15 22 19 19 6 42 27 31 40 36 29
310 251 275 247 38 60 120 137 23 189 199 131 253 7 302 349 6 345 330 340 37 34 35 337 308 309 308 281 314 323 352 355 16 353 311 322 345 347 3 1 356 358 3 0 4 349 356 7 5 16 22 12 6 46
280 331 333 271 57 9 55 253 164 89 79 248 357 34 21 340 316 307 307 40 24 302 275 279 324 348 13 14 338 2 320 9 37 26 18 354 11 1 359 349 5 2 359 356 343 332 336 352 344 335 322 309 308 356
322 22 345 14 74 41 265 54 71 243 236 300 19 0 315 301 242 345 52 207 272 273 258 230 332 358 50 2 51 30 18 29 34 16 359 354 336 352 5 8 3 11 360 349 343 347 353 332 329 342 332 321 315 23
319 10 18 291 129 254 345 305 46 40 2 351 341 294 268 251 335 54 345 276 251 313 37 244 61 25 19 33 38 3 353 356 14 30 10 13 16 351 346 352 360 14 353 293 338 343 350 355 349 3 355 348 0 16
17 300 100 292 244 284 278 299 167 121 250 215 210 292 283 47 46 11 273 274 262 204 224 126 115 142 126 78 338 353 16 55 33 36 356 6 358 10 10 352 354 6 359 358 348 333 337 343 13 24 21 17 22 24
140 228 150 226 197 174 223 237 212 225 200 209 238 274 60 91 50 275 244 238 249 233 186 183 190 176 164 173 163 185 241 43 72 49 349 2 28 44 5 13 2 350 349 340 345 352 357 7 16 19 24 19 16 31
258 259 243 234 167 154 291 247 148 146 219 217 211 162 134 305 273 256 267 239 237 231 224 220 172 166 157 138 152 100 97 117 98 129 258 26 39 21 20 8 356 305 326 358 8 11 11 13 17 19 20 24 22 16
221 191 188 209 221 194 224 259 245 221 223 195 99 174 206 219 241 237 217 265 263 289 29 39 118 127 131 116 101 112 79 68 54 358 323 23 24 26 4 349 350 355 4 22 16 19 24 21 19 21 23 22 18 18
229 214 142 242 215 209 227 198 221 230 181 145 157 203 229 253 245 290 5 330 327 89 77 80 50 84 80 71 56 49 65 59 56 38 26 354 340 333 347 337 357 4 2 19 4 17 22 31 31 30 28 21 12 8
246 162 166 219 189 227 243 175 210 151 99 131 118 71 33 311 272 127 42 28 126 125 115 124 118 99 111 106 90 54 28 42 53 74 20 341 308 304 329 358 4 356 359 18 10 1 358 11 5 16 20 18 11 6
142 137 188 195 240 241 231 133 85 84 84 76 35 102 196 267 339 357 51 116 121 104 97 96 86 83 118 120 108 98 49 9 28 44 50 23 359 8 7 0 346 353 21 23 22 21 18 18 15 10 13 14 10 11
160 186 175 209 268 286 93 81 101 93 100 89 94 101 89 54 13 323 345 97 104 93 87 111 110 86 80 102 98 91 99 70 22 18 38 43 27 16 8 3 10 24 29 32 30 27 23 22 16 15 12 12 9 10
110 120 144 246 320 320 291 123 106 89 68 133 195 184 180 165 196 222 337 16 142 138 140 127 107 107 113 106 105 94 72 69 71 60 58 56 49 39 26 14 21 31 36 34 27 23 22 20 18 16 14 12 10 8